Cherokee, North Carolina, United States (28719)
Lat: 35.47N, Lon: 83.31W
Wx Zone: NCZ051
Local Info
Past Weather Observations for Today

NOTE: This archive is for the closest National Weather Service station to Cherokee. Information may differ from the station used for current weather conditions.

Click here for Long-term Archive

Time Weather Temperature Dewpoint Humidity Pressure Winds Precip Visibility
20:35
Fair
61°F / 16°C 50°F / 10°C 68% 30.06 in
(1018 mb)
N 4.6 mph
(N 7 kph)
- 10SM
20:15
Fair
61°F / 16°C 50°F / 10°C 68% 30.06 in
(1018 mb)
NW 3.5 mph
(NW 6 kph)
- 10SM
19:55
Fair
61°F / 16°C 50°F / 10°C 68% 30.06 in
(1018 mb)
NNW 3.5 mph
(NNW 6 kph)
- 10SM
19:35
Fair
54°F / 12°C 50°F / 10°C 88% 30.06 in
(1018 mb)
Calm - 10SM
19:15
Fair
54°F / 12°C 50°F / 10°C 88% 30.06 in
(1018 mb)
SSW 4.6 mph
(SSW 7 kph)
- 10SM
18:55
Fair
57°F / 14°C 50°F / 10°C 77% 30.06 in
(1018 mb)
Calm - 10SM
18:35
Fair
57°F / 14°C 50°F / 10°C 77% 30.06 in
(1018 mb)
Calm - 10SM
18:15
Fair
61°F / 16°C 48°F / 9°C 63% 30.06 in
(1018 mb)
W 3.5 mph
(W 6 kph)
- 10SM
17:55
Fair
66°F / 19°C 48°F / 9°C 52% 30.04 in
(1017 mb)
Calm - 10SM
17:35
Fair
66°F / 19°C 48°F / 9°C 52% 30.04 in
(1017 mb)
NW 4.6 mph
(NW 7 kph)
- 10SM
17:15
Fair
68°F / 20°C 48°F / 9°C 49% 30.04 in
(1017 mb)
NW 6.9 mph
(NW 11 kph)
- 10SM
16:55
Fair
68°F / 20°C 46°F / 8°C 46% 30.04 in
(1017 mb)
NW 9.2 mph
(NW 15 kph)
- 10SM
16:35
Fair
70°F / 21°C 41°F / 5°C 35% 30.04 in
(1017 mb)
W 10.4 mph
(W 17 kph)
- 10SM
16:15
Fair
70°F / 21°C 36°F / 2°C 29% 30.04 in
(1017 mb)
NW 4.6 mph
(NW 7 kph)
- 10SM
15:55
Fair
72°F / 22°C 34°F / 1°C 25% 30.04 in
(1017 mb)
NW 9.2 mph
(NW 15 kph)
- 10SM
15:35
Fair
73°F / 23°C 32°F / 0°C 22% 30.04 in
(1017 mb)
WNW 6.9 mph
(WNW 11 kph)
- 10SM
15:15
Fair
73°F / 23°C 30°F / -1°C 20% 30.04 in
(1017 mb)
NW 6.9 mph
(NW 11 kph)
- 10SM
14:55
Fair
73°F / 23°C 30°F / -1°C 20% 30.04 in
(1017 mb)
NW 5.8 mph
(NW 9 kph)
- 10SM
14:35
Fair
73°F / 23°C 34°F / 1°C 23% 30.04 in
(1017 mb)
N 6.9 mph
(N 11 kph)
- 10SM
14:15
Fair
72°F / 22°C 32°F / 0°C 23% 30.04 in
(1017 mb)
NNW 4.6 mph
(NNW 7 kph)
- 10SM
13:55
Fair
72°F / 22°C 36°F / 2°C 27% 30.04 in
(1017 mb)
NNW 5.8 mph
(NNW 9 kph)
- 10SM
13:35
Fair
70°F / 21°C 36°F / 2°C 29% 30.04 in
(1017 mb)
Calm - 10SM
13:15
Fair
70°F / 21°C 34°F / 1°C 27% 30.06 in
(1018 mb)
Calm - 10SM
12:55
Fair
66°F / 19°C 36°F / 2°C 32% 30.06 in
(1018 mb)
Calm - 10SM
12:35
Fair
64°F / 18°C 34°F / 1°C 32% 30.06 in
(1018 mb)
Calm - 10SM
12:15
Fair
63°F / 17°C 34°F / 1°C 34% 30.09 in
(1019 mb)
SW 3.5 mph
(SW 6 kph)
- 10SM
11:55
Fair
63°F / 17°C 36°F / 2°C 37% 30.09 in
(1019 mb)
Calm - 10SM
11:35
Fair
59°F / 15°C 37°F / 3°C 45% 30.12 in
(1020 mb)
Calm - 10SM
11:15
Fair
57°F / 14°C 37°F / 3°C 48% 30.12 in
(1020 mb)
Calm - 10SM
10:55
Fair
55°F / 13°C 37°F / 3°C 51% 30.12 in
(1020 mb)
Calm - 10SM
10:35
Fair
54°F / 12°C 37°F / 3°C 54% 30.12 in
(1020 mb)
Calm - 10SM
10:15
Fair
50°F / 10°C 39°F / 4°C 67% 30.12 in
(1020 mb)
Calm - 10SM
09:55
Fair
48°F / 9°C 39°F / 4°C 71% 30.15 in
(1021 mb)
Calm - 10SM
09:35
Fair
45°F / 7°C 37°F / 3°C 76% 30.15 in
(1021 mb)
Calm - 10SM
09:15
Fair
41°F / 5°C 39°F / 4°C 93% 30.15 in
(1021 mb)
Calm - 10SM
08:55
Fair
39°F / 4°C 39°F / 4°C 100% 30.15 in
(1021 mb)
Calm - 10SM
08:35
Fair
37°F / 3°C 37°F / 3°C 100% 30.15 in
(1021 mb)
Calm - 10SM
08:15
Fair
34°F / 1°C 34°F / 1°C 100% 30.15 in
(1021 mb)
Calm - 10SM
07:55
Fair
32°F / 0°C 32°F / 0°C 100% 30.15 in
(1021 mb)
Calm - 7SM
07:35
Fair
30°F / -1°C 30°F / -1°C 100% 30.15 in
(1021 mb)
Calm - 10SM
07:15
Fair
30°F / -1°C 30°F / -1°C 100% 30.15 in
(1021 mb)
Calm - 10SM
06:55
Fair
30°F / -1°C 30°F / -1°C 100% 30.15 in
(1021 mb)
Calm - 10SM
06:35
Fog And Mist
30°F / -1°C 30°F / -1°C 100% 30.15 in
(1021 mb)
Calm - 2 1/2SM
06:15
Fair
30°F / -1°C 30°F / -1°C 100% 30.12 in
(1020 mb)
Calm - 7SM
05:55
Fair
30°F / -1°C 30°F / -1°C 100% 30.15 in
(1021 mb)
Calm - 10SM
05:35
Fair
30°F / -1°C 30°F / -1°C 100% 30.12 in
(1020 mb)
Calm - 7SM
05:15
Fair
32°F / 0°C 32°F / 0°C 100% 30.12 in
(1020 mb)
Calm - 10SM
04:55
Fog And Mist
32°F / 0°C 32°F / 0°C 100% 30.12 in
(1020 mb)
Calm - 5SM
04:35
Fog And Mist
32°F / 0°C 32°F / 0°C 100% 30.12 in
(1020 mb)
Calm - 4SM
04:15
Fair
32°F / 0°C 32°F / 0°C 100% 30.09 in
(1019 mb)
Calm - 7SM
03:55
Fair
32°F / 0°C 32°F / 0°C 100% 30.09 in
(1019 mb)
Calm - 7SM
03:35
Fair
32°F / 0°C 32°F / 0°C 100% 30.09 in
(1019 mb)
Calm - 7SM
03:15
Fair
32°F / 0°C 32°F / 0°C 100% 30.09 in
(1019 mb)
Calm - 7SM
02:55
Fair
32°F / 0°C 32°F / 0°C 100% 30.12 in
(1020 mb)
Calm - 7SM
02:35
Fair
32°F / 0°C 32°F / 0°C 100% 30.12 in
(1020 mb)
Calm - 7SM
02:15
Fair
34°F / 1°C 34°F / 1°C 100% 30.12 in
(1020 mb)
Calm - 7SM
01:55
Fair
34°F / 1°C 34°F / 1°C 100% 30.12 in
(1020 mb)
Calm - 10SM
01:35
Fair
34°F / 1°C 34°F / 1°C 100% 30.12 in
(1020 mb)
Calm - 10SM
01:15
Fair
34°F / 1°C 34°F / 1°C 100% 30.12 in
(1020 mb)
Calm - 10SM
00:55
Fair
34°F / 1°C 34°F / 1°C 100% 30.12 in
(1020 mb)
Calm - 10SM
00:35
Fair
34°F / 1°C 34°F / 1°C 100% 30.12 in
(1020 mb)
Calm - 10SM
00:15
Fair
36°F / 2°C 36°F / 2°C 100% 30.12 in
(1020 mb)
Calm - 10SM
Time Weather Temperature Dewpoint Humidity Pressure Winds Precip Visibility


Weather for websites

WeatherForYou.com, LLC is not responsible for any damages or problems caused by this service. Current weather conditions are obtained from the closest station including government and personal stations which may have varying degrees of accuracy. Weather forecasts are derived from the NOAA NDFD. Like all things, this site belongs to Jesus Christ... He just trusts me to maintain it. If you have any questions or comments email webmaster@weatherforyou.com

Copyright © 2014, WeatherForYou.com LLC. All rights reserved.